Lexington Weather

Lexington, Massachusetts, USA

34°F
4/16/2021 11:18am 
  • Lexington Conditions: Light snow, Mist, Overcast
  • Temperature: 34.0°F / 1.1°C 
  • Dew Point: 32.7°F 
  • Relative Humidity: 95
  • Wind: Wind from N N Calm, 10-min avg: 1 mph, gust: 4 mph
  • Barometer: 29.46 inFalling 0.03  inHg/hr Falling Slowly
  • Visibility: ¾ mile
  • Snow Today: 1.7 in
  •   

Regional Weather Roundup
for Boston / Norton, MA

        
000
ASUS41 KBOX 122204
RWRBOX

REGIONAL WEATHER ROUNDUP
NATIONAL WEATHER SERVICE BOSTON/NORTON MA
600 PM EDT MON APR 12 2021

NOTE:  "FAIR" INDICATES FEW OR NO CLOUDS BELOW 12,000 FEET WITH NO 
SIGNIFICANT WEATHER AND/OR OBSTRUCTIONS TO VISIBILITY.

MAZALL-122300-
EASTERN MASSACHUSETTS
  
CITY           SKY/WX    TMP DP  RH WIND       PRES   REMARKS
BOSTON         PTSUNNY   47  40  76 E14       29.91R                  
BEVERLY        NOT AVBL                                               
LAWRENCE       PTSUNNY   47  36  65 NE13G18   29.92R                  
BEDFORD        PTSUNNY   47  38  71 E12       29.89R                  
BLUE HILL        N/A     42  39  89 E13G23    29.87R                  
NORWOOD        CLOUDY    47  39  74 NE9G18    29.89S                  
MARSHFIELD     CLOUDY    45  43  93 NE10G18   29.90R                  
PLYMOUTH       CLOUDY    44  41  89 NE12      29.87R                  
TAUNTON        CLOUDY    46  40  79 NE8       29.87R                  
NEW BEDFORD    CLOUDY    46  42  86 NE14      29.85R                  
$$

MAZALL-122300-
CAPE COD AND THE ISLANDS
  
CITY           SKY/WX    TMP DP  RH WIND       PRES   REMARKS
FALMOUTH       CLOUDY    45  39  81 NE21G28   29.85R                  
HYANNIS        CLOUDY    46  38  73 NE13      29.84R                  
CHATHAM        PTSUNNY   44  36  73 NE14G23   29.88R                  
PROVINCETOWN   CLOUDY    44  40  85 E13       29.91R                  
NANTUCKET      CLOUDY    44  39  82 NE17G29   29.82R                  
MARTHAS VNYRD  PTSUNNY   47  40  76 NE18G28   29.83R                  
$$
 
MAZALL-122300-
CENTRAL AND WESTERN MASSACHUSETTS
  
CITY           SKY/WX    TMP DP  RH WIND       PRES   REMARKS
WORCESTER      PTSUNNY   44  37  76 E14G22    29.87R                  
FITCHBURG      CLOUDY    48  37  65 E14G20    29.90R                  
ORANGE         PTSUNNY   49  36  61 E8        29.89R                  
SPRINGFIELD    CLOUDY    49  38  66 NE13      29.87R                  
WESTFIELD      CLOUDY    49  39  68 NE9G18    29.87R                  
NORTH ADAMS    CLOUDY    50  41  71 VRB7G16   29.86R                  
PITTSFIELD     CLOUDY    47  41  80 VRB7      29.83R                  
$$
 
RIZALL-122300-
RHODE ISLAND
  
CITY           SKY/WX    TMP DP  RH WIND       PRES   REMARKS
PROVIDENCE     CLOUDY    48  39  71 NE16      29.87R                  
NEWPORT        CLOUDY    45  40  82 NE14      29.85R                  
BLOCK ISLAND   CLOUDY    43  40  89 NE17G25   29.85R                  
SMITHFIELD     CLOUDY    44  40  85 E12G18    29.87R                  
WESTERLY       CLOUDY    46  37  71 NE13G23   29.85R                  
$$
 
CTZALL-122300-
CONNECTICUT
  
CITY           SKY/WX    TMP DP  RH WIND       PRES   REMARKS
BRADLEY INTL   CLOUDY    50  38  63 NE14      29.86R                  
HARTFORD       CLOUDY    51  39  63 E12G20    29.86R                  
BRIDGEPORT     LGT RAIN  48  44  86 CALM      29.84R FOG              
DANBURY        RAIN      50  45  83 N3        29.84R                  
GROTON         CLOUDY    49  38  65 NE16G24   29.84R                  
NEW HAVEN      CLOUDY    49  44  83 E7        29.83R                  
CHESTER        CLOUDY    50  39  66 NE10G18   29.84R                  
MERIDEN        CLOUDY    51  39  63 NE8       29.85R                  
WILLIMANTIC    CLOUDY    48  38  68 NE14G23   29.86R                  
OXFORD         CLOUDY    48  44  86 NE14G20   29.83R                  
$$

MEZ002-015-021-024-NHZ003-005-008-011-012-014-VTZ005-008-122300-
NORTHERN NEW ENGLAND
  
CITY           SKY/WX    TMP DP  RH WIND       PRES   REMARKS
PORTLAND ME    SUNNY     47  36  65 E9        29.93R                  
BANGOR ME      MOSUNNY   57  35  43 N17G25    29.92R                  
CONCORD NH     CLOUDY    50  36  58 E10       29.90R                  
MANCHESTER NH  CLOUDY    50  34  54 E10G20    29.90R                  
NASHUA NH      PTSUNNY   49  38  65 E13       29.91R                  
PORTSMOUTH NH  PTSUNNY   46  32  57 E10G17    29.93R                  
JAFFREY NH     CLOUDY    48  36  63 VRB5      29.88R                  
KEENE NH       CLOUDY    50  36  58 NE8       29.89R                  
BURLINGTON VT  CLOUDY    61  41  47 CALM      29.84R                  
MT. WASHINGTON FOG       28  28 100 E25         N/A  VSB 1/16WCI  14  
$$

NYZ052-076-122300-
EASTERN NEW YORK
  
CITY           SKY/WX    TMP DP  RH WIND       PRES   REMARKS
ALBANY         CLOUDY    50  43  77 SE3       29.85R                  
NEW YORK CITY  LGT RAIN  47  43  86 NE7       29.84R FOG              
$$
 
ANZALL-122300-
MARINE OBSERVATIONS
  
STATION/POSITION TIME  TEMP    WIND        PRES    VSBY  WAVE
                       AIR SEA DIR/SP/G                  HT/PER
                 (UTC) (F)     (DEG/KT/KT) (MB)    (MI)  (FT/S)
BOSTON BUOY      2150   43 44   90/ 10/ 16 1013.0R         7/ 7
BUZZARDS BAY     2100           40/ 20/ 22 1010.7R
NANTUCKET SOUND  2150      47                N/A           3/ 3
MASS BAY-STELLWA 2104   44      80/ 12/ 16 1011.5R  1 7/8  7/ 8
ISLE OF SHOALS   2100   44      90/ 14/ 15 1012.1R
S OF BLOCK IS    2156      45                N/A           5/ 5
$$

......................KEY.........................
  SKY/WX - SKY CONDITION/PRESENT WEATHER
  TMP    - TEMPERATURE IN FAHRENHEIT
  DWPT   - DEWPOINT IN FAHRENHEIT
  RH     - RELATIVE HUMIDITY IN PERCENT
  WIND   - DIRECTION AND SPEED IN MPH
  PRES   - MEAN SEA LEVEL PRESSURE IN INCHES OF HG
  WCI    - WIND CHILL INDEX
  VSB    - VISIBILITY IN MILES
  HX     - HEAT INDEX
  TC     - TEMPERATURE IN CELSIUS
  VRB    - VARIABLE WIND DIRECTION
  N/A    - NOT AVAILABLE
  
      

Other recent Regional Weather Roundups

Fri Apr 16, 11:04am

Fri Apr 16, 10:05am

Fri Apr 16, 9:04am

Fri Apr 16, 8:04am

Fri Apr 16, 7:04am

Fri Apr 16, 6:04am

Fri Apr 16, 5:04am

Fri Apr 16, 4:04am

Fri Apr 16, 3:04am

Fri Apr 16, 2:04am

Fri Apr 16, 1:04am

Fri Apr 16, 12:04am

Thu Apr 15, 11:05pm

Thu Apr 15, 10:04pm

Thu Apr 15, 9:04pm

Thu Apr 15, 8:04pm

Thu Apr 15, 7:05pm

Thu Apr 15, 6:04pm

Thu Apr 15, 5:05pm

Thu Apr 15, 4:04pm

Thu Apr 15, 3:05pm

Thu Apr 15, 2:04pm

Thu Apr 15, 1:05pm

Thu Apr 15, 12:04pm

Thu Apr 15, 11:04am

Thu Apr 15, 10:05am

Thu Apr 15, 9:04am

Thu Apr 15, 8:04am

Thu Apr 15, 7:04am

Thu Apr 15, 6:04am

Thu Apr 15, 5:04am

Thu Apr 15, 4:04am

Thu Apr 15, 3:04am

Thu Apr 15, 2:04am

Thu Apr 15, 1:04am

Thu Apr 15, 12:04am

Wed Apr 14, 11:04pm

Wed Apr 14, 10:04pm

Wed Apr 14, 9:04pm

Wed Apr 14, 8:04pm

Wed Apr 14, 7:04pm

Wed Apr 14, 6:04pm

Wed Apr 14, 5:05pm

Wed Apr 14, 4:04pm

Wed Apr 14, 3:05pm

Wed Apr 14, 2:04pm

Wed Apr 14, 1:05pm

Wed Apr 14, 12:04pm

Wed Apr 14, 11:04am

Wed Apr 14, 10:04am

Wed Apr 14, 9:04am

Wed Apr 14, 8:04am

Wed Apr 14, 7:04am

Wed Apr 14, 6:04am

Wed Apr 14, 5:04am

Wed Apr 14, 4:04am

Wed Apr 14, 3:04am

Wed Apr 14, 2:04am

Wed Apr 14, 1:04am

Wed Apr 14, 12:04am

Tue Apr 13, 11:04pm

Tue Apr 13, 10:05pm

Tue Apr 13, 9:05pm

Tue Apr 13, 8:05pm

Tue Apr 13, 7:04pm

Tue Apr 13, 6:04pm

Tue Apr 13, 5:05pm

Tue Apr 13, 4:04pm

Tue Apr 13, 3:04pm

Tue Apr 13, 2:05pm

Tue Apr 13, 1:04pm

Tue Apr 13, 12:05pm

Tue Apr 13, 11:05am

Tue Apr 13, 10:04am

Tue Apr 13, 9:04am

Tue Apr 13, 8:04am

Tue Apr 13, 7:04am

Tue Apr 13, 6:04am

Tue Apr 13, 5:04am

Tue Apr 13, 4:04am

Tue Apr 13, 3:04am

Tue Apr 13, 2:04am

Tue Apr 13, 1:04am

Tue Apr 13, 12:05am

Mon Apr 12, 11:04pm

Mon Apr 12, 10:04pm

Mon Apr 12, 9:04pm

Mon Apr 12, 8:04pm

Mon Apr 12, 7:05pm

Mon Apr 12, 5:04pm

Mon Apr 12, 4:04pm

Mon Apr 12, 3:05pm

Mon Apr 12, 2:04pm

Mon Apr 12, 1:05pm

Mon Apr 12, 12:04pm

Mon Apr 12, 11:04am

Mon Apr 12, 10:04am

Mon Apr 12, 9:04am

Mon Apr 12, 8:04am

Mon Apr 12, 7:04am

Mon Apr 12, 6:04am

Mon Apr 12, 5:04am

Mon Apr 12, 4:04am

Mon Apr 12, 3:04am

Mon Apr 12, 2:04am

Mon Apr 12, 1:05am

Mon Apr 12, 12:04am

Sun Apr 11, 11:04pm

Sun Apr 11, 10:04pm

Sun Apr 11, 9:04pm

Sun Apr 11, 8:04pm

Sun Apr 11, 7:04pm

Sun Apr 11, 6:05pm

Sun Apr 11, 5:05pm

Sun Apr 11, 4:04pm

Sun Apr 11, 3:05pm

Sun Apr 11, 2:05pm

Sun Apr 11, 1:05pm

Sun Apr 11, 12:04pm

Sun Apr 11, 11:05am

Sun Apr 11, 10:05am

Sun Apr 11, 9:04am

Sun Apr 11, 8:04am

Sun Apr 11, 7:04am

Sun Apr 11, 6:04am

Sun Apr 11, 5:04am

Sun Apr 11, 4:04am

Sun Apr 11, 3:04am

Sun Apr 11, 2:04am

Sun Apr 11, 1:05am

Sun Apr 11, 12:04am

Sat Apr 10, 11:05pm

Sat Apr 10, 10:04pm

Sat Apr 10, 9:04pm

Sat Apr 10, 8:04pm

Sat Apr 10, 7:05pm

Sat Apr 10, 6:04pm

Sat Apr 10, 5:04pm

Sat Apr 10, 4:04pm

Sat Apr 10, 3:04pm

Sat Apr 10, 2:05pm

Sat Apr 10, 1:04pm

Sat Apr 10, 12:04pm

Sat Apr 10, 11:04am

Sat Apr 10, 10:04am

Sat Apr 10, 9:04am

Sat Apr 10, 8:04am

Sat Apr 10, 7:04am

Sat Apr 10, 6:04am

Sat Apr 10, 5:04am

Sat Apr 10, 4:04am

Sat Apr 10, 3:04am

Sat Apr 10, 2:04am

Sat Apr 10, 1:05am

Sat Apr 10, 12:04am

Fri Apr 9, 11:04pm

Fri Apr 9, 10:05pm

Fri Apr 9, 9:04pm

Fri Apr 9, 8:05pm

Fri Apr 9, 7:05pm

Fri Apr 9, 6:04pm

Fri Apr 9, 5:04pm

Fri Apr 9, 4:05pm

Fri Apr 9, 3:05pm

Fri Apr 9, 2:04pm

Fri Apr 9, 1:04pm

Fri Apr 9, 12:04pm

Meta data:

ID: 5603e81d-e07d-4c65-b9ed-a688e03b0b9e
Link: https://api.weather.gov/products/5603e81d-e07d-4c65-b9ed-a688e03b0b9e